Location: Cucq
(50.4773°N, 1.6202°E)
Time: 10:38:22
(UTC+00:00)

ARIANE 5 R/B - Pass Details

Date: 07 August 2020
Orbit: 749 x 794 km, 98.6° (Epoch: 21 September)

Event Time Altitude Azimuth Distance (km) Brightness Sun altitude
Rises 03:45:10 0° 10° (N) 3,294 6.6 -6.9°
Reaches altitude 10° 03:47:36 10° 3° (N) 2,366 5.6 -6.6°
Maximum altitude 03:52:27 41° 295° (WNW) 1,151 3.2 -6.0°
Drops below altitude 10° 03:57:18 10° 227° (SW) 2,362 4.4 -5.4°
Enters shadow 03:58:21 - 223° (SW) 2,757 4.7 -5.2°
